STARLINK-33750, 63513

Orbit data source: Space-Track

STARLINK-33750, 63513 is a payload satellite owned by SpaceX/Seattle (US) in LEO that was launched on Mon, 07 Apr 2025 UTC via an FALCON 9 launch vehicle from the Air Force Western Test Range (AFWTR). Payload-class satellites include a variety of spacecraft equipped with specific instruments for various scientific and technological missions. These include communications satellites like Starlink; space stations such as the ISS; scientific satellites like the Hubble; Earth observation satellites from companies like Planet Labs, Umbra, and HawkEye 360; GPS; miniature CubeSats for education and research; and military/defense satellites.

Loading next visibility...
Identifier
63513, 2025-071W
Orbit
LEO
Last TLE update
2 days ago
Origin
Manufacturer
SpaceX/Seattle
Mission
Operational spacecraft
Bus & Motor
STARLINK V2MO, Unknown motor
Mass
575 kg wet, ~530 kg dry
Launch date (UTC)
2025-04-07 (3 weeks ago)
Launch vehicle
FALCON 9
Launch site
Air Force Western Test Range (AFWTR)
Object type
Payload
Rocket body
Debris
Shape & HBR
Unknown
Radar Cross Section
Large (>1 m²)

Expand to show TLE details & history

TLE from 2 days ago
0 STARLINK-33750
1 63513U 25071W   25118.51147980 -.00009829  00000-0 -63008-4 0  9996
2 63513  53.1579 169.6460 0001390  75.2157 284.9016 15.74144918  4415
Epoch: 2025-04-28T12:16Z
Definitive object data (Epoch: 2025-04-28T12:16:31.854Z)
Latitude
-0.00009°
Longitude
128.78876°
Altitude
347.742 km
Speed
7.702 km/s
True Right ascension
11h 18m 35s
True Declination
0° 00' 00"
Sunlit
Object was in full shadow at TLE epoch
Visualization TLE readout
Latitude
-34.351°
Longitude
-30.25139°
Altitude
358.773 km
Speed
7.693 km/s
Apparent Right ascension
03h 22m 31s
Apparent Declination
-45° 54' 37"
Sunlit
Object is in daylight
Visualization observer readout
Local Sidereal Time
18:30:23
Azimuth
115.832° SE
Elevation
-55.594°
Doppler factor
1
Orbital elements
Apogee altitude
348.262 km
Perigee altitude
346.392 km
Semi-major axis
6,725.464 km
Eccentricity
0.000139
Inclination
53.1579°
RAAN
169.646°
Arg. of periapsis
75.2157°
True anomaly
284.88621°
Mean anomaly
284.9016°
Eccentric anomaly
284.8939°
Mean motion
3.93514 °/min
BSTAR
-0.000063008
Orbital period
91.48 mins
Loading maneuver chart data...
Loading SW <> Apogee altitude chart data...
Loading historical data...
Loading historical data...
Loading historical data...
Loading historical data...
Loading historical data...
Loading historical data...
Loading historical data...

STARLINK-33750 Visibility forecast

Observer location: undefined°, undefined°

Span
Click to sort rows by Start time (UTC) header in descending order
Start Az.
Max El. time (UTC)
Max El. Az.
Max El.
End time (UTC)
End Az.
5 mins2025-04-30 11:59:18.260Z323.64° NNW2025-04-30 12:02:18.260Z65.424° ENE31.335°2025-04-30 12:04:18.260Z107.392° ESE
|